sat.trackr.live / text

‹ back to catalog

KUIPER-00124

NORAD 65953 · 2025-228G

PAYLOAD ACTIVE UNKNOWN

§ Identity

Operator
Country
US
Launch date
2025-10-14
Launch site
AFETR
Launch vehicle
Mass (kg)
RCS (m²)

External: N2YO · Heavens-Above · Gunter

§ Orbital elements

Epoch: 2026-05-25T00:13:36.664896Z

Period
97.30 min
Inclination
51.8995°
Eccentricity
0.0000704
Mean motion
14.79930807 rev/d
Perigee alt
629.0 km
Apogee alt
630.0 km
Semi-major
7,007.7 km
B*
4.8641e-4
RAAN
18.0818°
Arg perigee
107.8735°
Mean anomaly
252.2304°
Rev number
3,460

§ Raw data

KUIPER-001241 65953U 25228G   26145.00945214  .00003489  00000+0  48641-3 0  99992 65953  51.8995  18.0818 0000704 107.8735 252.2304 14.79930807 34604

JSON: /api/v1/satellites/65953 · /tle

For live sub-satellite position, see the globe view (requires WebGL).

§ Visibility from observer

Set your observer location to see the next 7 days of passes ≥ 10°. The values pass through the URL so the page stays shareable.

No JS? Fill the form by hand. The geolocation button needs JavaScript.